TimeEDT,TemperatureF,Dew PointF,Humidity,Sea Level PressureIn,VisibilityMPH,Wind Direction,Wind SpeedMPH,Gust SpeedMPH,PrecipitationIn,Events,Conditions,WindDirDegrees,DateUTC
12:15 AM,46.4,44.6,93,30.15,10.0,Calm,Calm,-,N/A,,Clear,0,2013-09-15 04:15:00
12:35 AM,46.4,44.6,93,30.14,10.0,Calm,Calm,-,N/A,,Clear,0,2013-09-15 04:35:00
12:55 AM,46.4,42.8,87,30.15,10.0,Calm,Calm,-,N/A,,Clear,0,2013-09-15 04:55:00
1:15 AM,46.4,42.8,87,30.15,10.0,Calm,Calm,-,N/A,,Clear,0,2013-09-15 05:15:00
1:35 AM,44.6,42.8,93,30.15,10.0,Calm,Calm,-,N/A,,Clear,0,2013-09-15 05:35:00
1:55 AM,44.6,42.8,93,30.16,10.0,Calm,Calm,-,N/A,,Clear,0,2013-09-15 05:55:00
2:15 AM,44.6,41.0,87,30.15,10.0,Calm,Calm,-,N/A,,Clear,0,2013-09-15 06:15:00
2:35 AM,44.6,41.0,87,30.16,10.0,Calm,Calm,-,N/A,,Clear,0,2013-09-15 06:35:00
2:55 AM,42.8,41.0,93,30.15,7.0,Calm,Calm,-,N/A,,Clear,0,2013-09-15 06:55:00
3:15 AM,42.8,41.0,93,30.16,10.0,Calm,Calm,-,N/A,,Clear,0,2013-09-15 07:15:00
3:35 AM,42.8,41.0,93,30.16,1.8,Calm,Calm,-,N/A,,Mist,0,2013-09-15 07:35:00
3:55 AM,42.8,41.0,93,30.17,3.0,Calm,Calm,-,N/A,,Clear,0,2013-09-15 07:55:00
4:15 AM,42.8,41.0,93,30.17,10.0,Calm,Calm,-,N/A,,Clear,0,2013-09-15 08:15:00
4:35 AM,42.8,41.0,93,30.17,7.0,Calm,Calm,-,N/A,,Clear,0,2013-09-15 08:35:00
4:55 AM,42.8,39.2,87,30.18,0.8,Calm,Calm,-,N/A,,Mostly Cloudy,0,2013-09-15 08:55:00
5:15 AM,42.8,41.0,93,30.18,10.0,Calm,Calm,-,N/A,,Scattered Clouds,0,2013-09-15 09:15:00
5:35 AM,42.8,39.2,87,30.18,7.0,Calm,Calm,-,N/A,,Clear,0,2013-09-15 09:35:00
5:55 AM,42.8,41.0,93,30.19,10.0,Calm,Calm,-,N/A,,Clear,0,2013-09-15 09:55:00
6:15 AM,42.8,39.2,87,30.19,10.0,Calm,Calm,-,N/A,,Clear,0,2013-09-15 10:15:00
6:35 AM,41.0,39.2,93,30.19,4.0,Calm,Calm,-,N/A,,Clear,0,2013-09-15 10:35:00
6:45 AM,41.0,39.2,93,30.20,10.0,Calm,Calm,-,N/A,,Scattered Clouds,0,2013-09-15 10:45:00
7:45 AM,44.6,42.8,93,30.21,10.0,Calm,Calm,-,N/A,,Partly Cloudy,0,2013-09-15 11:45:00
8:45 AM,51.8,46.4,82,30.22,10.0,Calm,Calm,-,N/A,,Partly Cloudy,0,2013-09-15 12:45:00
9:45 AM,57.2,48.2,72,30.23,10.0,Calm,Calm,-,N/A,,Scattered Clouds,0,2013-09-15 13:45:00
10:45 AM,62.6,44.6,52,30.22,10.0,Calm,Calm,-,N/A,,Mostly Cloudy,0,2013-09-15 14:45:00
11:45 AM,64.4,46.4,52,30.21,10.0,NNE,5.8,-,N/A,,Mostly Cloudy,30,2013-09-15 15:45:00
12:45 PM,66.2,42.8,43,30.19,10.0,Calm,Calm,-,N/A,,Scattered Clouds,0,2013-09-15 16:45:00
1:45 PM,68.0,39.2,35,30.17,10.0,Calm,Calm,-,N/A,,Mostly Cloudy,0,2013-09-15 17:45:00
2:45 PM,69.8,42.8,38,30.15,10.0,WNW,4.6,-,N/A,,Mostly Cloudy,290,2013-09-15 18:45:00
3:45 PM,69.8,42.8,38,30.12,10.0,SW,6.9,-,N/A,,Mostly Cloudy,220,2013-09-15 19:45:00
5:45 PM,68.0,46.4,46,30.11,10.0,WSW,4.6,-,N/A,,Mostly Cloudy,250,2013-09-15 21:45:00
6:45 PM,60.8,53.6,77,30.10,10.0,Calm,Calm,-,N/A,,Mostly Cloudy,0,2013-09-15 22:45:00
7:45 PM,57.2,51.8,82,30.10,10.0,Calm,Calm,-,N/A,,Mostly Cloudy,0,2013-09-15 23:45:00
8:45 PM,53.6,51.8,94,30.10,10.0,Calm,Calm,-,N/A,,Clear,0,2013-09-16 00:45:00
9:45 PM,53.6,51.8,94,30.12,10.0,Calm,Calm,-,N/A,,Clear,0,2013-09-16 01:45:00
10:55 PM,53.6,51.8,94,30.11,10.0,Calm,Calm,-,N/A,,Clear,0,2013-09-16 02:55:00
11:15 PM,55.4,51.8,88,30.11,10.0,Calm,Calm,-,N/A,,Clear,0,2013-09-16 03:15:00
11:35 PM,55.4,51.8,88,30.11,10.0,Calm,Calm,-,N/A,,Clear,0,2013-09-16 03:35:00
11:55 PM,55.4,51.8,88,30.10,10.0,Calm,Calm,-,N/A,,Clear,0,2013-09-16 03:55:00